"Pseudo-MPEC" for C8GK5Y2

Created 2022 Nov 25 8:22:10 UT using Find_Orb

Click here for an explanation of pseudo-MPECs

 
 Astrometry: 
     C8GK5Y2*1C2022 11 23.39982703 54 18.227+46 58 48.14   ~BNAM 20.98GVNEOCPG96
     C8GK5Y2 1C2022 11 23.40570003 54 17.618+46 58 43.68   ~BNAM 20.75GVNEOCPG96
     C8GK5Y2 1C2022 11 23.41157603 54 16.978+46 58 38.68   ~BNAM 20.44GVNEOCPG96
     C8GK5Y2 1C2022 11 23.41743603 54 16.358+46 58 34.28   ~BNAM 21.08GVNEOCPG96
     C8GK5Y2 KC2022 11 24#-hioAll4NW#Lto1QQ/EAxtB=Sv@:d6)4WuEI]c*:iXcT[:+j`'BL01
     C8GK5Y2 KC2022 11 244I_AAstrometryyY[odR9XLoiF/3YLg:fM^TZ:Wt5WSpu#4']M_cL01
     C8GK5Y2 KC2022 11 24j.SjqfIC-=/Z!64\*FVt#cjRfY3$`rgPredacted;@uQ`xtn)(=sL01
     C8GK5Y2 KC2022 11 24qSX=cRclickt'vLm/_qp1_kYuB@thjyp-hereMg;_*Xk$_A*-QC$L01
     C8GK5Y2 KC2022 11 24G.=GyQwuKKkm;Ecr+=1iforvH[CRhtPGu^wexplanation8It3tEL01
     C8GK5Y2 KC2022 11 25.19114703 51 18.130+46 35 18.50   ~BP57       VNEOCPI52
     C8GK5Y2 KC2022 11 25.19460603 51 17.760+46 35 15.80   ~BP57       VNEOCPI52
     C8GK5Y2 KC2022 11 25.19861303 51 17.210+46 35 13.40   ~BP57       VNEOCPI52

Station data:
(G96) Mt. Lemmon Survey  (N32.442751 W110.788720)  US/Arizona.  Observers T.
   A. Pruyne, B. M. Africano, E. J. Christensen, G. A. Farneth, D. C. Fuls,
   A. R. Gibbs, A. D. Grauer, H. Gröller, J. A. Johnson, R. A. Kowalski, S.
   M. Larson, G. J. Leonard, D. Rankin, R. L. Seaman, F. C. Shelly, K. W.
   Wierzchoś. 1.5-m reflector + 10K CCD.
(I52) Steward Observatory, Mt. Lemmon Station  (N32.442544 W110.788920)
   US/Arizona.  Observers T. A. Pruyne, B. M. Africano, E. J. Christensen, G.
   A. Farneth, D. C. Fuls, A. R. Gibbs, A. D. Grauer, H. Gröller, J. A.
   Johnson, R. A. Kowalski, S. M. Larson, G. J. Leonard, D. Rankin, R. L.
   Seaman, F. C. Shelly, K. W. Wierzchoś. 1.0-m reflector + CCD.
(L01) Višnjan Observatory, Tičan  (N45.290897 E13.749300)  Croatia.
   Observers K. Korlević, D. Pujagic, V. Dobos. Measurers D. Pujagic, K.
   Korlević. 1.0-m f/2.9 reflector + CCD.

Orbital elements:  C8GK5Y2
   Perihelion 2021 Dec 2.59830 +/- 326 TT = 14:21:33 (JD 2459551.09830)
Epoch 2022 Nov 25.0 TT = JDT 2459908.5   Earth MOID: 0.6527   AutoNEOCP
M 138.17147875 +/- 70               (J2000 ecliptic)
n   0.38659995 +/- 0.0341           Peri.  351.74936 +/- 52
a   1.86621432 +/- 0.11             Node   285.13955 +/- 7
e   0.1060699 +/- 0.0898            Incl.   20.20738 +/- 6
P   2.55/931.18d           H 19.0   G  0.15   U 10.5  SR
q 1.66826502 +/- 0.122    Q 2.06416363 +/- 0.308
From 12 observations 2022 Nov. 23-25 (43.2 hr); mean residual 0".36
Residuals in arcseconds: 
221123 G96  .04+  .04+    221124 L01  .16+  .37-    221124 L01  .24+  .29+    
221123 G96  .12+  .16+    221124 L01  .07+  .23+    221125 I52  .25+  .52-    
221123 G96  .13-  .25-    221124 L01  .28+  .44+    221125 I52  .13+  .47-    
221123 G96  .19-  .07-    221124 L01  .28+  .22+    221125 I52  1.3-  .31+    

Ephemerides (geocentric):
Date (UTC) HH   RA             Dec           delta  r     elong  mag " sig PA
---- --------  ------------   ------------  ------ ------ -----  --- --------
2022 11 25 08  03 51 03.478   +46 33 22.16  1.0880 2.0223 154.0 21.5 3.07 132
2022 11 25 09  03 50 59.310   +46 32 48.11  1.0880 2.0223 154.0 21.5 3.52 131
2022 11 25 10  03 50 55.143   +46 32 14.02  1.0879 2.0223 154.1 21.5 3.99 130
2022 11 25 11  03 50 50.979   +46 31 39.88  1.0879 2.0224 154.1 21.5 4.47 129
2022 11 25 12  03 50 46.816   +46 31 05.69  1.0879 2.0224 154.1 21.5 4.97 129
2022 11 25 13  03 50 42.655   +46 30 31.46  1.0879 2.0224 154.1 21.5 5.48 129
2022 11 25 14  03 50 38.495   +46 29 57.17  1.0879 2.0225 154.1 21.5 6.01 128
2022 11 25 15  03 50 34.338   +46 29 22.84  1.0879 2.0225 154.1 21.5 6.56 128
2022 11 25 16  03 50 30.183   +46 28 48.45  1.0879 2.0225 154.1 21.5 7.13 128
2022 11 25 17  03 50 26.029   +46 28 14.02  1.0879 2.0226 154.1 21.5 7.71 127
2022 11 25 18  03 50 21.877   +46 27 39.54  1.0879 2.0226 154.2 21.5 8.30 127
2022 11 25 19  03 50 17.727   +46 27 05.01  1.0878 2.0226 154.2 21.5 8.91 127
2022 11 25 20  03 50 13.579   +46 26 30.43  1.0878 2.0227 154.2 21.5 9.54 127
2022 11 25 21  03 50 09.433   +46 25 55.81  1.0878 2.0227 154.2 21.5 10.2 126
2022 11 25 22  03 50 05.289   +46 25 21.14  1.0878 2.0227 154.2 21.5 10.8 126
2022 11 25 23  03 50 01.147   +46 24 46.41  1.0878 2.0228 154.2 21.5 11.5 126
2022 11 26 00  03 49 57.007   +46 24 11.65  1.0878 2.0228 154.2 21.5 12.2 126
2022 11 26 01  03 49 52.869   +46 23 36.83  1.0878 2.0228 154.2 21.5 12.9 126
2022 11 26 02  03 49 48.733   +46 23 01.96  1.0878 2.0228 154.3 21.5 13.7 126
2022 11 26 03  03 49 44.598   +46 22 27.05  1.0878 2.0229 154.3 21.5 14.4 125
2022 11 26 04  03 49 40.466   +46 21 52.09  1.0878 2.0229 154.3 21.5 15.2 125
2022 11 26 05  03 49 36.336   +46 21 17.08  1.0878 2.0229 154.3 21.5 15.9 125
2022 11 26 06  03 49 32.208   +46 20 42.03  1.0878 2.0230 154.3 21.5 16.7 125
2022 11 26 07  03 49 28.082   +46 20 06.92  1.0878 2.0230 154.3 21.5 17.5 125
2022 11 26 08  03 49 23.958   +46 19 31.77  1.0878 2.0230 154.3 21.5 18.3 125
2022 11 26 09  03 49 19.836   +46 18 56.57  1.0878 2.0231 154.3 21.5 19.2 125
2022 11 26 10  03 49 15.717   +46 18 21.33  1.0878 2.0231 154.3 21.5 20.0 125
2022 11 26 11  03 49 11.599   +46 17 46.04  1.0878 2.0231 154.4 21.5 20.9 124
2022 11 26 12  03 49 07.483   +46 17 10.70  1.0878 2.0232 154.4 21.5 21.8 124
2022 11 26 13  03 49 03.370   +46 16 35.31  1.0878 2.0232 154.4 21.5 22.7 124
2022 11 26 14  03 48 59.259   +46 15 59.88  1.0877 2.0232 154.4 21.5 23.6 124
2022 11 26 15  03 48 55.150   +46 15 24.39  1.0877 2.0233 154.4 21.5 24.6 124
2022 11 26 16  03 48 51.043   +46 14 48.87  1.0877 2.0233 154.4 21.5 25.5 124
2022 11 26 17  03 48 46.938   +46 14 13.29  1.0877 2.0233 154.4 21.5 26.5 124
2022 11 26 18  03 48 42.835   +46 13 37.67  1.0877 2.0233 154.4 21.5 27.5 124
2022 11 26 19  03 48 38.735   +46 13 02.00  1.0878 2.0234 154.4 21.5 28.5 124
2022 11 26 20  03 48 34.637   +46 12 26.29  1.0878 2.0234 154.4 21.5 29.5 124
2022 11 26 21  03 48 30.541   +46 11 50.53  1.0878 2.0234 154.4 21.5 30.5 124
2022 11 26 22  03 48 26.448   +46 11 14.72  1.0878 2.0235 154.5 21.5 31.6 123
2022 11 26 23  03 48 22.356   +46 10 38.86  1.0878 2.0235 154.5 21.5 32.6 123
2022 11 27 00  03 48 18.267   +46 10 02.96  1.0878 2.0235 154.5 21.5 33.7 123
2022 11 27 01  03 48 14.180   +46 09 27.02  1.0878 2.0236 154.5 21.5 34.8 123
2022 11 27 02  03 48 10.096   +46 08 51.02  1.0878 2.0236 154.5 21.5 35.9 123
2022 11 27 03  03 48 06.014   +46 08 14.99  1.0878 2.0236 154.5 21.5 37.1 123
2022 11 27 04  03 48 01.934   +46 07 38.90  1.0878 2.0237 154.5 21.5 38.2 123
2022 11 27 05  03 47 57.857   +46 07 02.77  1.0878 2.0237 154.5 21.5 39.4 123
2022 11 27 06  03 47 53.781   +46 06 26.59  1.0878 2.0237 154.5 21.5 40.5 123
2022 11 27 07  03 47 49.709   +46 05 50.37  1.0878 2.0238 154.5 21.5 41.7 123